Location: Wapato
(46.4478°N, 120.4212°W)
Time: 14:20:35
(UTC+00:00)

Vanguard 2 Rocket - Pass Details

Date: 16 May 2026
Orbit: 553 x 3286 km, 32.9° (Epoch: 7 June)

Event Time Altitude Azimuth Distance (km) Brightness Sun altitude
Rises 00:03:39 0° 274° (W) 6,786 12.4 33.3°
Reaches altitude 10° 00:08:29 10° 267° (W) 5,993 12.6 32.4°
Maximum altitude 00:24:53 36° 211° (SSW) 4,408 11.1 29.6°
Drops below altitude 10° 00:40:15 10° 153° (SSE) 5,586 10.7 27.0°
Sets 00:44:36 0° 145° (SE) 6,290 10.9 26.2°
